+ View the NASA Portal
+ Center for Near-Earth Object Studies
IMPORTANT:
The SSD Announcement email list is now available. Major changes are coming in the near future, including possible hostname and/or URL changes. To be notified of such changes, subscribe to this email list.
Please visit
this page
for more details.
Don't show this message again
JPL Small-Body Database Browser
Search:
[
help
]
233380 (2006 DJ212)
Classification:
Main-belt Asteroid
SPK-ID:
2233380
[
Ephemeris
|
Orbit Diagram
|
Orbital Elements
|
Mission Design
|
Physical Parameters
|
Discovery Circumstances
|
Close-Approach Data
]
[ show orbit diagram ]
Orbital Elements at Epoch 2458600.5 (2019-Apr-27.0) TDB
Reference:
JPL 12
(heliocentric ecliptic J2000)
Element
Value
Uncertainty (1-sigma)
Units
e
.1040966067359587
7.2918e-08
a
2.708212862263379
3.0154e-08
au
q
2.426297092983083
1.9037e-07
au
i
3.743056323201808
8.9595e-06
deg
node
321.7907027013586
0.00010827
deg
peri
93.7863187586249
0.00011655
deg
M
89.87428333073206
4.4498e-05
deg
t
p
2458194.098257894616
(2018-Mar-16.59825789)
0.0001989
TDB
period
1627.880876886059
4.46
2.7188e-05
7.444e-08
d
yr
n
.2211464027322668
3.6935e-09
deg/d
Q
2.990128631543675
3.3293e-08
au
Orbit Determination Parameters
# obs. used (total)
207
data-arc span
8495 days (23.26 yr)
first obs. used
1995-11-24
last obs. used
2019-02-26
planetary ephem.
DE431
SB-pert. ephem.
SB431-N16
condition code
0
norm. resid. RMS
.61698
source
ORB
producer
Otto Matic
solution date
2019-Jul-14 07:16:47
Additional Information
Earth MOID
= 1.44104 au
Jupiter MOID
= 2.31185 au
T_jup
= 3.353
[ show covariance matrix ]
[
Ephemeris
|
Orbit Diagram
|
Orbital Elements
|
Mission Design
|
Physical Parameters
|
Discovery Circumstances
|
Close-Approach Data
]
Physical Parameter Table
Parameter
Symbol
Value
Units
Sigma
Reference
Notes
absolute magnitude
H
16.4
n/a
MPO422904
233380 (2006 DJ212)
Discovered 2006-Feb-26 by Spacewatch at Kitt Peak
Reference:
20100228/Numbers.arc
Last Updated:
2010-03-03
[ show close-approach data ]
Alternate Designations
2006 DJ212
= 1999 TO335
[
Ephemeris
|
Orbit Diagram
|
Orbital Elements
|
Mission Design
|
Physical Parameters
|
Discovery Circumstances
|
Close-Approach Data
]
2019-Dec-09 21:14 UT
(server date/time)
Site Manager:
Ryan S. Park
Webmaster
:
Alan B. Chamberlin